Location: Chiroubles
(46.1812°N, 4.6660°E)
Time: 02:39:53
(UTC+00:00)

Explorer 7 - Pass Details

Date: 28 November 2020
Orbit: 484 x 678 km, 50.3° (Epoch: 25 January)

Event Time Altitude Azimuth Distance (km) Brightness Sun altitude
Exits shadow 04:37:26 44° 20° (NNE) 769 7.5 -24.1°
Drops below altitude 10° 04:40:53 10° 73° (ENE) 1,787 10.3 -23.5°
Sets 04:43:06 0° 79° (E) 2,647 11.5 -23.1°
